Lafayette, IN

10:06 AM EDT on July 23, 2016 (GMT -0400)
Purdue Univ

Weather History for KLAF - January, 2014

Change the Weather History Date:

Thursday, January 30, 2014

  Actual Average Record
Temperature  
Mean Temperature 25 °F 27 °F  
Max Temperature 33 °F 35 °F 65 °F (2013)
Min Temperature 17 °F 19 °F -12 °F (1966)
Degree Days  
Heating Degree Days 40 38  
Month to date heating degree days 1293 1159  
Since 1 July heating degree days 3631 3334  
Cooling Degree Days 0 0  
Month to date cooling degree days 0 0  
Year to date cooling degree days 0 0  
Moisture  
Dew Point 9 °F    
Average Humidity 47    
Maximum Humidity 54    
Minimum Humidity 39    
Precipitation  
Precipitation 0.00 in 0.05 in 1.53 in (1982)
Month to date precipitation 0.83 1.80  
Year to date precipitation 0.83 1.80  
Sea Level Pressure  
Sea Level Pressure 29.99 in    
Wind  
Wind Speed 13 mph (SSW)    
Max Wind Speed 23 mph    
Max Gust Speed 32 mph    
Visibility 10 miles    
Events      
T = Trace of Precipitation, MM = Missing Value Source: NWS Daily Summary

Daily Weather History Graph

Daily Weather History Graph

Search for Another Location

Airport or City:

Trip Planner

Search our weather history database for the weather conditions in past years. The results will help you decide how hot, cold, wet, or windy it might be!

Date:

Astronomy

Jan. 30, 2014 Rise Set
Actual Time 7:58 AM EST 6:03 PM EST
Civil Twilight 7:29 AM EST 6:32 PM EST
Nautical Twilight 6:57 AM EST 7:05 PM EST
Astronomical Twilight 6:25 AM EST 7:37 PM EST
Moon 7:24 AM EST (1/30) 6:15 PM EST (1/30)
Length of Visible Light 11h 02m
Length of Day
10h 04m
Waning Crescent, 0% of the Moon is Illuminated
Jan 30
Waning Crescent
Jan 30
New
Feb 6
First Quarter
Feb 14
Full
Feb 22
Last Quarter

Hourly Weather History & Observations

Time (EST) Temp. Windchill Dew Point Humidity Pressure Visibility Wind Dir Wind Speed Gust Speed Precip Events Conditions
12:54 AM 17.1 °F 5.8 °F 3.9 °F 56% 30.17 in 10.0 mi South 9.2 mph 17.3 mph N/A   Clear
1:54 AM 18.0 °F 6.1 °F 3.9 °F 54% 30.16 in 10.0 mi SSW 10.4 mph - N/A   Clear
2:54 AM 18.0 °F 7.7 °F 3.9 °F 54% 30.14 in 10.0 mi SSW 8.1 mph - N/A   Clear
3:54 AM 17.1 °F 5.8 °F 3.9 °F 56% 30.13 in 10.0 mi South 9.2 mph - N/A   Clear
4:54 AM 17.1 °F 7.6 °F 3.9 °F 56% 30.13 in 10.0 mi South 6.9 mph - N/A   Clear
5:54 AM 18.0 °F 6.9 °F 3.9 °F 54% 30.11 in 10.0 mi South 9.2 mph - N/A   Clear
6:54 AM 18.0 °F 6.1 °F 3.9 °F 54% 30.10 in 10.0 mi South 10.4 mph - N/A   Clear
7:54 AM 18.0 °F 3.6 °F 3.9 °F 54% 30.09 in 10.0 mi South 15.0 mph 24.2 mph N/A   Clear
8:54 AM 19.9 °F 6.2 °F 5.0 °F 52% 30.06 in 10.0 mi South 15.0 mph 25.3 mph N/A   Clear
9:54 AM 21.9 °F 8.7 °F 6.1 °F 51% 30.04 in 10.0 mi South 15.0 mph 24.2 mph N/A   Clear
10:54 AM 24.1 °F 11.5 °F 7.0 °F 48% 29.99 in 10.0 mi South 15.0 mph 28.8 mph N/A   Clear
11:54 AM 26.1 °F 14.5 °F 8.1 °F 47% 29.97 in 10.0 mi South 13.8 mph 26.5 mph N/A   Clear
12:54 PM 28.0 °F 15.3 °F 10.0 °F 47% 29.92 in 10.0 mi South 18.4 mph 27.6 mph N/A   Clear
1:54 PM 28.9 °F 16.9 °F 10.0 °F 45% 29.85 in 10.0 mi South 17.3 mph 28.8 mph N/A   Clear
2:54 PM 30.9 °F 18.7 °F 10.9 °F 43% 29.81 in 10.0 mi South 19.6 mph 31.1 mph N/A   Clear
3:54 PM 32.0 °F 20.5 °F 10.9 °F 42% 29.82 in 10.0 mi SSW 18.4 mph 26.5 mph N/A   Partly Cloudy
4:54 PM 32.0 °F 21.6 °F 10.9 °F 42% 29.84 in 10.0 mi SSW 15.0 mph 23.0 mph N/A   Mostly Cloudy
5:54 PM 32.0 °F 21.6 °F 12.0 °F 44% 29.88 in 10.0 mi SW 15.0 mph 20.7 mph N/A   Overcast
6:54 PM 32.0 °F 23.0 °F 12.9 °F 45% 29.88 in 10.0 mi SW 11.5 mph 20.7 mph N/A   Overcast
7:54 PM 33.1 °F 25.5 °F 15.1 °F 48% 29.89 in 10.0 mi SW 9.2 mph - N/A   Overcast
8:54 PM 33.1 °F 24.4 °F 14.0 °F 46% 29.90 in 10.0 mi SW 11.5 mph - N/A   Overcast
9:54 PM 33.1 °F 25.5 °F 14.0 °F 46% 29.92 in 10.0 mi SW 9.2 mph - N/A   Overcast
10:54 PM 33.1 °F 26.1 °F 15.1 °F 48% 29.93 in 10.0 mi SW 8.1 mph - N/A   Overcast
11:54 PM 33.1 °F 24.9 °F 16.0 °F 50% 29.94 in 10.0 mi SW 10.4 mph - N/A   Overcast